SAS4517 ENML-ENGM

Flight info

Callsign SAS4517
Flight time 0h 39m
Altitude 35000
Route BAMVA DCT OKEXA DCT BELGU
Aircraft A20N/M-SDE3FGIJ1RWXY/ALB1

Departure

Time 2026-05-05 16:53
Airport Molde Airport, Årø (ENML)

Arrival

Time 2026-05-05 17:33
Airport Oslo-Gardermoen International Airport (ENGM)
Time Latitude Longitude Altitude Speed Heading
2026-05-05 16:41 62.74605 7.26144 20 ft 0 kts 340°
2026-05-05 16:45 62.74591 7.26155 20 ft 4 kts 341°
2026-05-05 16:45 62.74568 7.26173 24 ft 1 kts 341°
2026-05-05 16:46 62.74567 7.26173 24 ft 0 kts 341°
2026-05-05 16:48 62.74568 7.26173 24 ft 1 kts 341°
2026-05-05 16:49 62.74577 7.26202 22 ft 4 kts 88°
2026-05-05 16:49 62.74541 7.26256 20 ft 8 kts 156°
2026-05-05 16:49 62.74498 7.26354 18 ft 13 kts 89°
2026-05-05 16:49 62.74528 7.26575 17 ft 17 kts 71°
2026-05-05 16:50 62.74567 7.26840 16 ft 21 kts 73°
2026-05-05 16:50 62.74617 7.27151 16 ft 23 kts 68°
2026-05-05 16:50 62.74670 7.27472 24 ft 22 kts 71°
2026-05-05 16:50 62.74721 7.27792 25 ft 22 kts 71°
2026-05-05 16:51 62.74777 7.28143 22 ft 26 kts 71°
2026-05-05 16:51 62.74830 7.28484 17 ft 19 kts 71°
2026-05-05 16:51 62.74849 7.28685 15 ft 9 kts 100°
2026-05-05 16:51 62.74873 7.28755 18 ft 6 kts 345°
2026-05-05 16:52 62.74870 7.28685 18 ft 8 kts 227°
2026-05-05 16:52 62.74853 7.28623 17 ft 2 kts 251°
2026-05-05 16:52 62.74852 7.28617 16 ft 0 kts 252°
2026-05-05 16:53 62.74797 7.28270 91 ft 63 kts 251°
2026-05-05 16:53 62.74575 7.26880 79 ft 129 kts 250°
2026-05-05 16:53 62.74238 7.24811 423 ft 147 kts 254°
2026-05-05 16:53 62.73913 7.22632 1188 ft 157 kts 256°
2026-05-05 16:54 62.73570 7.20307 1996 ft 166 kts 253°
2026-05-05 16:54 62.73144 7.17834 2557 ft 186 kts 251°
2026-05-05 16:54 62.72684 7.15230 3114 ft 206 kts 252°
2026-05-05 16:54 62.72176 7.12140 3801 ft 226 kts 253°
2026-05-05 16:55 62.71660 7.08799 4543 ft 242 kts 254°
2026-05-05 16:55 62.71137 7.05282 5546 ft 246 kts 255°
2026-05-05 16:55 62.70616 7.01720 6599 ft 249 kts 254°
2026-05-05 16:55 62.69804 6.98336 7607 ft 256 kts 234°
2026-05-05 16:56 62.68441 6.95761 8631 ft 266 kts 212°
2026-05-05 16:56 62.66638 6.94632 9642 ft 278 kts 186°
2026-05-05 16:56 62.64693 6.95356 10455 ft 296 kts 161°
2026-05-05 16:56 62.62900 6.97910 10869 ft 325 kts 136°
2026-05-05 16:57 62.61616 7.02061 11292 ft 347 kts 112°
2026-05-05 16:57 62.61143 7.07217 12122 ft 352 kts 89°
2026-05-05 16:57 62.61343 7.12554 13035 ft 356 kts 82°
2026-05-05 16:57 62.61637 7.17930 13895 ft 361 kts 83°
2026-05-05 16:58 62.61815 7.23412 14670 ft 366 kts 87°
2026-05-05 16:58 62.61861 7.28973 15442 ft 370 kts 89°
2026-05-05 16:58 62.61823 7.34629 16189 ft 376 kts 91°
2026-05-05 16:58 62.61805 7.40321 16904 ft 381 kts 86°
2026-05-05 16:59 62.62048 7.46107 17609 ft 386 kts 83°
2026-05-05 16:59 62.62303 7.51914 18309 ft 391 kts 84°
2026-05-05 16:59 62.62557 7.57832 18901 ft 397 kts 84°
2026-05-05 16:59 62.62815 7.63875 19438 ft 404 kts 84°
2026-05-05 17:00 62.63074 7.69998 20002 ft 410 kts 84°
2026-05-05 17:00 62.63252 7.76231 20556 ft 417 kts 92°
2026-05-05 17:00 62.62778 7.82482 21084 ft 422 kts 109°
2026-05-05 17:00 62.61521 7.88233 21618 ft 422 kts 127°
2026-05-05 17:01 62.59589 7.93009 22169 ft 419 kts 144°
2026-05-05 17:01 62.57204 7.96485 22689 ft 416 kts 158°
2026-05-05 17:01 62.54596 7.99317 23328 ft 419 kts 161°
2026-05-05 17:01 62.51951 8.02078 23813 ft 424 kts 161°
2026-05-05 17:02 62.49334 8.04932 24264 ft 429 kts 160°
2026-05-05 17:02 62.46661 8.07985 24705 ft 435 kts 159°
2026-05-05 17:02 62.43983 8.11136 25099 ft 440 kts 158°
2026-05-05 17:02 62.41313 8.14317 25549 ft 443 kts 158°
2026-05-05 17:03 62.38586 8.17571 25939 ft 448 kts 159°
2026-05-05 17:03 62.35841 8.20841 26387 ft 452 kts 159°
2026-05-05 17:03 62.33060 8.24142 26794 ft 456 kts 159°
2026-05-05 17:03 62.30263 8.27455 27208 ft 460 kts 159°
2026-05-05 17:04 62.27477 8.30746 27601 ft 464 kts 159°
2026-05-05 17:04 62.24635 8.34092 27984 ft 468 kts 159°
2026-05-05 17:04 62.21764 8.37465 28381 ft 472 kts 159°
2026-05-05 17:04 62.18857 8.40873 28732 ft 475 kts 160°
2026-05-05 17:05 62.15940 8.44286 29072 ft 479 kts 160°
2026-05-05 17:05 62.12997 8.47720 29380 ft 483 kts 160°
2026-05-05 17:05 62.10060 8.51140 29726 ft 486 kts 160°
2026-05-05 17:05 62.07071 8.54612 30047 ft 489 kts 160°
2026-05-05 17:06 62.04104 8.58051 30337 ft 492 kts 160°
2026-05-05 17:06 62.01083 8.61545 30648 ft 495 kts 160°
2026-05-05 17:06 61.98041 8.65056 30843 ft 497 kts 160°
2026-05-05 17:06 61.94990 8.68572 30897 ft 497 kts 160°
2026-05-05 17:07 61.88895 8.75572 30900 ft 497 kts 160°
2026-05-05 17:07 61.82828 8.82501 30894 ft 497 kts 160°
2026-05-05 17:08 61.76764 8.89395 30896 ft 498 kts 160°
2026-05-05 17:08 61.70657 8.96306 30895 ft 497 kts 160°
2026-05-05 17:09 61.64574 9.03154 30892 ft 497 kts 161°
2026-05-05 17:09 61.58449 9.10023 30885 ft 496 kts 161°
2026-05-05 17:10 61.52362 9.16822 30865 ft 495 kts 161°
2026-05-05 17:10 61.46315 9.23484 30867 ft 493 kts 162°
2026-05-05 17:11 61.40209 9.30354 30859 ft 497 kts 160°
2026-05-05 17:11 61.37177 9.33797 30480 ft 496 kts 161°
2026-05-05 17:11 61.34119 9.37220 29631 ft 499 kts 162°
2026-05-05 17:12 61.31045 9.40612 28705 ft 499 kts 162°
2026-05-05 17:12 61.28005 9.43942 27757 ft 500 kts 162°
2026-05-05 17:12 61.24943 9.47292 27201 ft 491 kts 162°
2026-05-05 17:12 61.21936 9.50580 26695 ft 482 kts 162°
2026-05-05 17:13 61.19976 9.52717 26321 ft 477 kts 162°
2026-05-05 17:13 61.16112 9.56909 25586 ft 468 kts 163°
2026-05-05 17:13 61.13240 9.60014 25047 ft 462 kts 163°
2026-05-05 17:13 61.11317 9.62088 24668 ft 458 kts 163°
2026-05-05 17:14 61.08506 9.65116 24125 ft 453 kts 163°
2026-05-05 17:14 61.05759 9.68068 23596 ft 448 kts 163°
2026-05-05 17:14 61.03000 9.71027 23009 ft 442 kts 163°
2026-05-05 17:14 61.00285 9.73937 22490 ft 435 kts 163°
2026-05-05 17:15 60.97618 9.76788 21964 ft 428 kts 163°
2026-05-05 17:15 60.95020 9.79559 21461 ft 421 kts 163°
2026-05-05 17:15 60.92429 9.82317 20960 ft 415 kts 163°
2026-05-05 17:15 60.89882 9.85023 20456 ft 410 kts 163°
2026-05-05 17:16 60.87357 9.87700 19974 ft 404 kts 163°
2026-05-05 17:16 60.84868 9.90336 19478 ft 400 kts 162°
2026-05-05 17:16 60.82433 9.92909 18998 ft 395 kts 162°
2026-05-05 17:16 60.79998 9.95477 18521 ft 390 kts 162°
2026-05-05 17:17 60.77588 9.98015 18007 ft 386 kts 162°
2026-05-05 17:17 60.75210 10.00516 17534 ft 380 kts 162°
2026-05-05 17:17 60.72875 10.02968 17074 ft 374 kts 162°
2026-05-05 17:17 60.70576 10.05380 16622 ft 369 kts 161°
2026-05-05 17:18 60.68331 10.07727 16186 ft 364 kts 161°
2026-05-05 17:18 60.66083 10.10076 15729 ft 359 kts 161°
2026-05-05 17:18 60.63871 10.12382 15293 ft 354 kts 161°
2026-05-05 17:18 60.61687 10.14655 14861 ft 350 kts 160°
2026-05-05 17:19 60.59519 10.16908 14437 ft 346 kts 160°
2026-05-05 17:19 60.57415 10.19093 14026 ft 342 kts 160°
2026-05-05 17:19 60.55293 10.21292 13595 ft 338 kts 159°
2026-05-05 17:19 60.53206 10.23454 13166 ft 334 kts 159°
2026-05-05 17:20 60.51140 10.25590 12763 ft 347 kts 159°
2026-05-05 17:20 60.48919 10.27862 12414 ft 357 kts 159°
2026-05-05 17:20 60.46748 10.30106 12144 ft 350 kts 158°
2026-05-05 17:20 60.44575 10.32354 11921 ft 350 kts 158°
2026-05-05 17:21 60.42396 10.34601 11879 ft 350 kts 158°
2026-05-05 17:21 60.40218 10.36841 11878 ft 350 kts 158°
2026-05-05 17:21 60.38043 10.39073 11873 ft 350 kts 158°
2026-05-05 17:22 60.33785 10.43441 11274 ft 339 kts 158°
2026-05-05 17:22 60.31695 10.45580 10880 ft 333 kts 158°
2026-05-05 17:22 60.29638 10.47681 10487 ft 328 kts 158°
2026-05-05 17:22 60.27629 10.49732 10094 ft 316 kts 158°
2026-05-05 17:23 60.25728 10.51673 9722 ft 304 kts 158°
2026-05-05 17:23 60.23869 10.53565 9306 ft 295 kts 158°
2026-05-05 17:23 60.22041 10.55418 8908 ft 292 kts 158°
2026-05-05 17:23 60.20224 10.57255 8507 ft 290 kts 158°
2026-05-05 17:24 60.18438 10.59060 8101 ft 288 kts 158°
2026-05-05 17:24 60.16655 10.60860 7712 ft 286 kts 158°
2026-05-05 17:24 60.14903 10.62629 7325 ft 284 kts 158°
2026-05-05 17:24 60.13134 10.64419 6936 ft 282 kts 158°
2026-05-05 17:25 60.11377 10.66190 6554 ft 281 kts 158°
2026-05-05 17:25 60.10242 10.67330 6310 ft 280 kts 158°
2026-05-05 17:25 60.07915 10.69665 5745 ft 276 kts 158°
2026-05-05 17:25 60.06248 10.71349 5568 ft 265 kts 158°
2026-05-05 17:26 60.04618 10.72998 5460 ft 253 kts 158°
2026-05-05 17:26 60.03093 10.74534 5350 ft 243 kts 159°
2026-05-05 17:26 60.01615 10.76014 5261 ft 232 kts 159°
2026-05-05 17:26 60.00209 10.77420 5169 ft 220 kts 159°
2026-05-05 17:27 59.98877 10.78794 5070 ft 212 kts 152°
2026-05-05 17:27 59.97936 10.81019 5003 ft 215 kts 114°
2026-05-05 17:27 59.97775 10.84046 5000 ft 222 kts 78°
2026-05-05 17:27 59.98126 10.87032 5008 ft 219 kts 74°
2026-05-05 17:28 59.98527 10.89993 5006 ft 221 kts 74°
2026-05-05 17:28 59.98936 10.92905 4978 ft 220 kts 68°
2026-05-05 17:28 59.99766 10.95415 4798 ft 216 kts 37°
2026-05-05 17:28 60.01020 10.97001 4487 ft 212 kts 19°
2026-05-05 17:29 60.02402 10.98028 4184 ft 211 kts 12°
2026-05-05 17:29 60.03795 10.98859 3875 ft 210 kts 11°
2026-05-05 17:29 60.05201 10.99682 3599 ft 210 kts 11°
2026-05-05 17:29 60.06582 11.00487 3329 ft 201 kts 11°
2026-05-05 17:30 60.07896 11.01249 3058 ft 193 kts 11°
2026-05-05 17:30 60.09182 11.01987 2780 ft 191 kts 11°
2026-05-05 17:30 60.10423 11.02710 2522 ft 179 kts 10°
2026-05-05 17:30 60.11540 11.03359 2301 ft 160 kts
2026-05-05 17:31 60.12563 11.03965 2033 ft 149 kts
2026-05-05 17:31 60.13532 11.04542 1798 ft 145 kts
2026-05-05 17:31 60.14498 11.05091 1552 ft 144 kts
2026-05-05 17:31 60.15450 11.05631 1348 ft 142 kts
2026-05-05 17:32 60.16401 11.06171 1165 ft 142 kts 11°
2026-05-05 17:32 60.17326 11.06707 932 ft 136 kts 11°
2026-05-05 17:32 60.18231 11.07227 751 ft 135 kts 12°
2026-05-05 17:32 60.19131 11.07738 671 ft 124 kts 14°
2026-05-05 17:33 60.19762 11.08101 673 ft 67 kts 17°
2026-05-05 17:33 60.20088 11.08303 670 ft 44 kts 20°
2026-05-05 17:33 60.20236 11.08495 676 ft 15 kts 51°
2026-05-05 17:33 60.20251 11.08551 676 ft 4 kts 71°
2026-05-05 17:34 60.20238 11.08689 675 ft 14 kts 109°
2026-05-05 17:34 60.20208 11.08901 676 ft 16 kts 108°
2026-05-05 17:34 60.20175 11.09108 681 ft 16 kts 107°
2026-05-05 17:34 60.20143 11.09337 681 ft 19 kts 106°
2026-05-05 17:35 60.20105 11.09599 681 ft 19 kts 107°
2026-05-05 17:35 60.20069 11.09862 679 ft 21 kts 105°
2026-05-05 17:35 60.20027 11.10147 683 ft 22 kts 107°
2026-05-05 17:35 60.19984 11.10444 682 ft 17 kts 105°
2026-05-05 17:36 60.19953 11.10589 678 ft 10 kts 147°
2026-05-05 17:36 60.19871 11.10567 680 ft 14 kts 196°
2026-05-05 17:36 60.19762 11.10502 678 ft 18 kts 197°
2026-05-05 17:36 60.19676 11.10453 681 ft 8 kts 195°
2026-05-05 17:37 60.19660 11.10365 681 ft 8 kts 293°
2026-05-05 17:37 60.19671 11.10290 681 ft 6 kts 284°
2026-05-05 17:37 60.19680 11.10228 681 ft 0 kts 285°
2026-05-05 17:37 60.19680 11.10227 681 ft 0 kts 285°